VCV47 SVJC-SVMI

Flight info

Callsign VCV47
Flight time N/A
Altitude 29000
Route CRO1 CRO DCT ISISU
Aircraft E190/M-SDE3GILORVW/S

Departure

Time 2026-05-04 22:10
Airport Josefa Camejo International Airport (SVJC)

Arrival

Time N/A
Airport Maiquetía Simón Bolívar International Airport (SVMI)
Time Latitude Longitude Altitude Speed Heading
2026-05-04 21:49 11.77793 -70.14965 127 ft 0 kts 176°
2026-05-04 22:03 11.77809 -70.14967 88 ft 4 kts 175°
2026-05-04 22:03 11.77835 -70.14969 85 ft 4 kts 175°
2026-05-04 22:03 11.77862 -70.14971 86 ft 4 kts 174°
2026-05-04 22:03 11.77888 -70.14977 86 ft 4 kts 155°
2026-05-04 22:04 11.77912 -70.14988 88 ft 4 kts 179°
2026-05-04 22:04 11.77917 -70.14996 88 ft 1 kts 266°
2026-05-04 22:04 11.77918 -70.14991 88 ft 0 kts 266°
2026-05-04 22:06 11.77917 -70.15002 89 ft 3 kts 269°
2026-05-04 22:06 11.77927 -70.15037 88 ft 7 kts 288°
2026-05-04 22:06 11.77949 -70.15095 86 ft 10 kts 293°
2026-05-04 22:07 11.77982 -70.15172 84 ft 13 kts 294°
2026-05-04 22:07 11.78022 -70.15260 87 ft 14 kts 295°
2026-05-04 22:07 11.78059 -70.15353 91 ft 14 kts 285°
2026-05-04 22:07 11.78058 -70.15460 91 ft 16 kts 265°
2026-05-04 22:08 11.78046 -70.15582 91 ft 19 kts 265°
2026-05-04 22:08 11.78034 -70.15723 92 ft 21 kts 264°
2026-05-04 22:08 11.78021 -70.15875 95 ft 22 kts 264°
2026-05-04 22:08 11.78006 -70.16046 90 ft 26 kts 265°
2026-05-04 22:09 11.77989 -70.16233 87 ft 26 kts 264°
2026-05-04 22:09 11.77969 -70.16390 87 ft 15 kts 248°
2026-05-04 22:09 11.77975 -70.16425 90 ft 2 kts 44°
2026-05-04 22:09 11.77975 -70.16402 88 ft 9 kts 87°
2026-05-04 22:10 11.77991 -70.16213 89 ft 55 kts 85°
2026-05-04 22:10 11.78046 -70.15596 91 ft 118 kts 84°
2026-05-04 22:10 11.78131 -70.14591 245 ft 160 kts 85°
2026-05-04 22:10 11.78242 -70.13398 837 ft 179 kts 83°
2026-05-04 22:11 11.78380 -70.12041 1521 ft 203 kts 86°
2026-05-04 22:11 11.78499 -70.10587 2680 ft 209 kts 86°
2026-05-04 22:11 11.78380 -70.09040 3374 ft 240 kts 108°
2026-05-04 22:11 11.77340 -70.07641 4409 ft 251 kts 135°
2026-05-04 22:12 11.76104 -70.06315 5503 ft 261 kts 132°
2026-05-04 22:12 11.74883 -70.04905 6629 ft 268 kts 133°
2026-05-04 22:12 11.73621 -70.03492 7767 ft 271 kts 133°
2026-05-04 22:12 11.72347 -70.02072 8946 ft 273 kts 132°
2026-05-04 22:13 11.71050 -70.00641 10104 ft 277 kts 132°
2026-05-04 22:13 11.69670 -69.99131 10760 ft 298 kts 133°
2026-05-04 22:13 11.68201 -69.97552 11538 ft 314 kts 131°
2026-05-04 22:13 11.66673 -69.95901 12368 ft 326 kts 131°
2026-05-04 22:14 11.65100 -69.94215 13221 ft 335 kts 131°
2026-05-04 22:14 11.63462 -69.92470 14058 ft 343 kts 131°
2026-05-04 22:14 11.61804 -69.90704 14947 ft 348 kts 131°
2026-05-04 22:14 11.60113 -69.88915 15878 ft 352 kts 131°
2026-05-04 22:15 11.58388 -69.87101 16742 ft 358 kts 132°
2026-05-04 22:15 11.56637 -69.85272 17607 ft 362 kts 132°
2026-05-04 22:15 11.54855 -69.83420 18352 ft 368 kts 132°
2026-05-04 22:15 11.53045 -69.81548 19007 ft 373 kts 133°
2026-05-04 22:16 11.51198 -69.79643 19518 ft 383 kts 133°
2026-05-04 22:16 11.49304 -69.77704 20031 ft 390 kts 133°
2026-05-04 22:16 11.47369 -69.75729 20548 ft 398 kts 133°
2026-05-04 22:16 11.45391 -69.73712 21039 ft 406 kts 133°
2026-05-04 22:17 11.43400 -69.71687 21521 ft 413 kts 133°
2026-05-04 22:17 11.41419 -69.69539 21978 ft 419 kts 126°
2026-05-04 22:17 11.40077 -69.66909 22421 ft 421 kts 106°
2026-05-04 22:17 11.39228 -69.64033 22920 ft 427 kts 104°
2026-05-04 22:18 11.38386 -69.61111 23392 ft 433 kts 104°
2026-05-04 22:18 11.37523 -69.58154 23869 ft 437 kts 104°
2026-05-04 22:18 11.36653 -69.55175 24324 ft 440 kts 104°
2026-05-04 22:18 11.35774 -69.52176 24752 ft 443 kts 104°
2026-05-04 22:19 11.34887 -69.49158 25185 ft 446 kts 104°
2026-05-04 22:19 11.33998 -69.46113 25573 ft 450 kts 104°
2026-05-04 22:19 11.33099 -69.43042 25979 ft 452 kts 104°
2026-05-04 22:19 11.32195 -69.39959 26355 ft 455 kts 105°
2026-05-04 22:20 11.31287 -69.36850 26734 ft 458 kts 105°
2026-05-04 22:20 11.30374 -69.33731 27107 ft 461 kts 105°
2026-05-04 22:20 11.29454 -69.30585 27466 ft 464 kts 105°
2026-05-04 22:20 11.28542 -69.27461 27811 ft 467 kts 105°
2026-05-04 22:21 11.27612 -69.24279 28142 ft 470 kts 105°
2026-05-04 22:21 11.26679 -69.21073 28451 ft 472 kts 105°
2026-05-04 22:21 11.25742 -69.17855 28751 ft 475 kts 105°
2026-05-04 22:21 11.24808 -69.14656 28926 ft 465 kts 105°
2026-05-04 22:22 11.23916 -69.11570 28927 ft 442 kts 105°
2026-05-04 22:22 11.23067 -69.08641 28928 ft 420 kts 105°
2026-05-04 22:22 11.22255 -69.05842 28935 ft 402 kts 105°
2026-05-04 22:22 11.21475 -69.03154 28941 ft 391 kts 105°
2026-05-04 22:23 11.20704 -69.00493 28925 ft 391 kts 105°
2026-05-04 22:23 11.19154 -68.95146 28921 ft 394 kts 105°
2026-05-04 22:24 11.17597 -68.89787 28933 ft 395 kts 105°
2026-05-04 22:24 11.16044 -68.84444 28948 ft 395 kts 105°
2026-05-04 22:25 11.14480 -68.79067 28953 ft 396 kts 105°
2026-05-04 22:25 11.12914 -68.73689 28962 ft 396 kts 105°
2026-05-04 22:26 11.11347 -68.68308 28917 ft 396 kts 105°
2026-05-04 22:26 11.09791 -68.62971 28919 ft 395 kts 105°
2026-05-04 22:27 11.08226 -68.57600 28916 ft 395 kts 105°
2026-05-04 22:27 11.06658 -68.52230 28827 ft 398 kts 105°
2026-05-04 22:27 11.05866 -68.49512 28467 ft 399 kts 105°
2026-05-04 22:28 11.05081 -68.46825 28185 ft 396 kts 105°
2026-05-04 22:28 11.04293 -68.44128 27596 ft 398 kts 105°
2026-05-04 22:28 11.03505 -68.41438 27057 ft 395 kts 105°
2026-05-04 22:28 11.02723 -68.38767 26533 ft 392 kts 105°
2026-05-04 22:29 11.01944 -68.36120 26015 ft 389 kts 107°
2026-05-04 22:29 11.01010 -68.33546 25506 ft 387 kts 110°
2026-05-04 22:29 11.00040 -68.30996 24985 ft 384 kts 109°
2026-05-04 22:29 10.99102 -68.28492 24485 ft 382 kts 109°
2026-05-04 22:30 10.98161 -68.25972 23983 ft 380 kts 109°
2026-05-04 22:30 10.97228 -68.23464 23468 ft 378 kts 109°
2026-05-04 22:30 10.96302 -68.20973 22954 ft 373 kts 109°
2026-05-04 22:30 10.95390 -68.18516 22475 ft 368 kts 109°
2026-05-04 22:31 10.94495 -68.16097 21998 ft 363 kts 109°
2026-05-04 22:31 10.93612 -68.13712 21523 ft 358 kts 109°
2026-05-04 22:31 10.92743 -68.11361 21053 ft 352 kts 109°
2026-05-04 22:31 10.91885 -68.09042 20585 ft 347 kts 109°
2026-05-04 22:32 10.91043 -68.06758 20131 ft 342 kts 109°
2026-05-04 22:32 10.90211 -68.04508 19677 ft 337 kts 109°
2026-05-04 22:32 10.89389 -68.02289 19224 ft 333 kts 109°
2026-05-04 22:32 10.88577 -68.00099 18794 ft 328 kts 109°
2026-05-04 22:33 10.87778 -67.97940 18359 ft 324 kts 110°
2026-05-04 22:33 10.86989 -67.95808 17897 ft 320 kts 110°
2026-05-04 22:33 10.86211 -67.93709 17502 ft 313 kts 110°
2026-05-04 22:33 10.85449 -67.91652 17083 ft 308 kts 110°
2026-05-04 22:34 10.84698 -67.89628 16685 ft 304 kts 110°
2026-05-04 22:34 10.83958 -67.87631 16279 ft 299 kts 110°
2026-05-04 22:34 10.83238 -67.85689 15881 ft 296 kts 110°
2026-05-04 22:34 10.82514 -67.83738 15483 ft 292 kts 110°
2026-05-04 22:35 10.81800 -67.81813 15117 ft 289 kts 110°
2026-05-04 22:35 10.81094 -67.79910 14734 ft 286 kts 110°
2026-05-04 22:35 10.80394 -67.78023 14357 ft 284 kts 110°
2026-05-04 22:35 10.79709 -67.76177 13983 ft 281 kts 110°
2026-05-04 22:36 10.79020 -67.74320 13600 ft 279 kts 110°